Sterling Muni, Sterling, CO, CO

6:14 AM MST on January 22, 2018 (GMT -0700)
Sterling Municipal

Weather History for KSTK - December, 2013

Change the Weather History Date:

Saturday, December 28, 2013

  Actual Average Record
Temperature  
Mean Temperature 38 °F -  
Max Temperature 59 °F 37 °F 59 °F (2013)
Min Temperature 17 °F 11 °F -4 °F (2014)
Degree Days  
Heating Degree Days 27    
Moisture  
Dew Point 18 °F    
Average Humidity 67    
Maximum Humidity 93    
Minimum Humidity 20    
Precipitation  
Precipitation 0.00 in - - ()
Sea Level Pressure  
Sea Level Pressure 29.98 in    
Wind  
Wind Speed 11 mph (NNW)    
Max Wind Speed 30 mph    
Max Gust Speed 38 mph    
Visibility 10 miles    
Events      
Averages and records for this station are not official NWS values.
T = Trace of Precipitation, MM = Missing Value Source: NWS Daily Summary

Daily Weather History Graph

Daily Weather History Graph

Search for Another Location

Airport or City:

Trip Planner

Search our weather history database for the weather conditions in past years. The results will help you decide how hot, cold, wet, or windy it might be!

Date:

Astronomy

Dec. 28, 2013 Rise Set
Actual Time 7:16 AM MST 4:33 PM MST
Civil Twilight 6:45 AM MST 5:04 PM MST
Nautical Twilight 6:10 AM MST 5:38 PM MST
Astronomical Twilight 5:37 AM MST 6:12 PM MST
Moon 2:54 AM MST (12/28) 1:26 PM MST (12/28)
Length of Visible Light 10h 19m
Length of Day
9h 17m
Waning Crescent, 18% of the Moon is Illuminated
Dec 28
Waning Crescent
Jan 1
New
Jan 7
First Quarter
Jan 15
Full
Jan 23
Last Quarter

Hourly Weather History & Observations

Time (MST) Temp. Windchill Dew Point Humidity Pressure Visibility Wind Dir Wind Speed Gust Speed Precip Events Conditions
12:10 AM 23.0 °F 14.7 °F 17.6 °F 80% 30.02 in 10.0 mi SW 6.9 mph - N/A   Clear
12:30 AM 23.0 °F 15.8 °F 17.6 °F 80% 30.00 in 10.0 mi SW 5.8 mph - N/A   Clear
12:50 AM 21.2 °F 13.6 °F 17.6 °F 86% 29.99 in 10.0 mi SSE 5.8 mph - N/A   Clear
1:10 AM 19.4 °F 10.4 °F 15.8 °F 86% 29.99 in 10.0 mi SSW 6.9 mph - N/A   Clear
1:30 AM 21.2 °F 11.7 °F 17.6 °F 86% 29.98 in 10.0 mi South 8.1 mph - N/A   Clear
1:50 AM 21.2 °F 11.7 °F 17.6 °F 86% 29.97 in 10.0 mi SSW 8.1 mph - N/A   Clear
2:10 AM 21.2 °F 14.9 °F 19.4 °F 93% 29.96 in 10.0 mi SSW 4.6 mph - N/A   Clear
2:30 AM 19.4 °F 11.5 °F 17.6 °F 93% 29.96 in 10.0 mi SSW 5.8 mph - N/A   Clear
2:50 AM 19.4 °F 10.4 °F 17.6 °F 93% 29.95 in 10.0 mi SSW 6.9 mph - N/A   Clear
3:10 AM 19.4 °F 10.4 °F 17.6 °F 93% 29.93 in 10.0 mi SSW 6.9 mph - N/A   Clear
3:30 AM 21.2 °F 13.6 °F 17.6 °F 86% 29.93 in 10.0 mi SSW 5.8 mph - N/A   Clear
3:50 AM 19.4 °F 10.4 °F 17.6 °F 93% 29.93 in 10.0 mi SW 6.9 mph - N/A   Clear
4:10 AM 21.2 °F 13.6 °F 17.6 °F 86% 29.91 in 10.0 mi SSW 5.8 mph - N/A   Clear
4:30 AM 19.4 °F 9.5 °F 17.6 °F 93% 29.91 in 10.0 mi SW 8.1 mph - N/A   Clear
4:50 AM 19.4 °F 10.4 °F 17.6 °F 93% 29.91 in 10.0 mi SSW 6.9 mph - N/A   Clear
5:10 AM 19.4 °F 11.5 °F 17.6 °F 93% 29.90 in 10.0 mi SSW 5.8 mph - N/A   Clear
5:30 AM 19.4 °F 12.8 °F 17.6 °F 93% 29.90 in 10.0 mi SW 4.6 mph - N/A   Clear
5:50 AM 17.6 °F 8.2 °F 15.8 °F 93% 29.90 in 10.0 mi SSW 6.9 mph - N/A   Clear
6:10 AM 19.4 °F 12.8 °F 15.8 °F 86% 29.89 in 10.0 mi South 4.6 mph - N/A   Clear
6:30 AM 19.4 °F 9.5 °F 17.6 °F 93% 29.88 in 10.0 mi SSW 8.1 mph - N/A   Clear
6:50 AM 19.4 °F 9.5 °F 17.6 °F 93% 29.88 in 10.0 mi SW 8.1 mph - N/A   Clear
7:10 AM 21.2 °F 11.7 °F 17.6 °F 86% 29.88 in 10.0 mi SW 8.1 mph - N/A   Clear
7:30 AM 19.4 °F 11.5 °F 17.6 °F 93% 29.88 in 10.0 mi SSW 5.8 mph - N/A   Clear
7:50 AM 21.2 °F 13.6 °F 19.4 °F 93% 29.87 in 10.0 mi South 5.8 mph - N/A   Clear
8:10 AM 23.0 °F 11.7 °F 21.2 °F 93% 29.86 in 10.0 mi SSW 11.5 mph - N/A   Clear
8:30 AM 26.6 °F 18.2 °F 21.2 °F 80% 29.87 in 10.0 mi SSW 8.1 mph - N/A   Clear
8:50 AM 28.4 °F 21.2 °F 23.0 °F 80% 29.87 in 10.0 mi SSW 6.9 mph - N/A   Clear
9:10 AM 32.0 °F 25.6 °F 23.0 °F 69% 29.87 in 10.0 mi SW 6.9 mph - N/A   Clear
9:30 AM 32.0 °F 25.6 °F 23.0 °F 69% 29.87 in 10.0 mi SW 6.9 mph - N/A   Clear
9:50 AM 35.6 °F 28.6 °F 24.8 °F 65% 29.87 in 10.0 mi SW 9.2 mph - N/A   Clear
10:10 AM 39.2 °F 37.0 °F 24.8 °F 56% 29.87 in 10.0 mi SW 3.5 mph - N/A   Clear
10:30 AM 42.8 °F 40.1 °F 26.6 °F 53% 29.87 in 10.0 mi South 4.6 mph - N/A   Clear
10:50 AM 46.4 °F 44.3 °F 26.6 °F 46% 29.86 in 10.0 mi South 4.6 mph - N/A   Clear
11:10 AM 59.0 °F - 19.4 °F 22% 29.85 in 10.0 mi NNW 28.8 mph 34.5 mph N/A   Clear
11:30 AM 59.0 °F - 17.6 °F 20% 29.85 in 10.0 mi NNW 28.8 mph 35.7 mph N/A   Clear
11:50 AM 57.2 °F - 17.6 °F 21% 29.85 in 10.0 mi NNW 29.9 mph 38.0 mph N/A   Clear
12:10 PM 55.4 °F - 17.6 °F 23% 29.86 in 10.0 mi North 25.3 mph 34.5 mph N/A   Clear
12:30 PM 53.6 °F - 19.4 °F 26% 29.86 in 10.0 mi NNE 27.6 mph 35.7 mph N/A   Clear
12:50 PM 50.0 °F - 21.2 °F 32% 29.87 in 10.0 mi NNE 23.0 mph 36.8 mph N/A   Clear
1:10 PM 50.0 °F - 21.2 °F 32% 29.88 in 10.0 mi NNE 25.3 mph 33.4 mph N/A   Clear
1:30 PM 50.0 °F - 23.0 °F 35% 29.88 in 10.0 mi NNE 23.0 mph 35.7 mph N/A   Clear
1:50 PM 50.0 °F - 23.0 °F 35% 29.89 in 10.0 mi NNE 26.5 mph 34.5 mph N/A   Clear
2:10 PM 48.2 °F - 23.0 °F 37% 29.90 in 10.0 mi NNE 23.0 mph 29.9 mph N/A   Clear
2:30 PM 46.4 °F 38.5 °F 23.0 °F 40% 29.91 in 10.0 mi NE 21.9 mph 28.8 mph N/A   Clear
2:50 PM 44.6 °F 36.9 °F 23.0 °F 43% 29.93 in 10.0 mi NE 18.4 mph 25.3 mph N/A   Clear
3:10 PM 44.6 °F 37.8 °F 24.8 °F 46% 29.94 in 10.0 mi NE 15.0 mph 23.0 mph N/A   Clear
3:30 PM 42.8 °F 35.8 °F 24.8 °F 49% 29.95 in 10.0 mi NE 13.8 mph 20.7 mph N/A   Clear
3:50 PM 42.8 °F 35.4 °F 24.8 °F 49% 29.97 in 10.0 mi NNE 15.0 mph 20.7 mph N/A   Scattered Clouds
4:10 PM 37.4 °F 26.4 °F 24.8 °F 60% 29.98 in 10.0 mi North 23.0 mph 31.1 mph N/A   Scattered Clouds
4:30 PM 35.6 °F 24.5 °F 23.0 °F 60% 30.00 in 10.0 mi North 20.7 mph 31.1 mph N/A   Scattered Clouds
4:50 PM 35.6 °F 24.2 °F 23.0 °F 60% 30.01 in 10.0 mi North 21.9 mph 28.8 mph N/A   Mostly Cloudy
5:10 PM 33.8 °F 21.9 °F 23.0 °F 65% 30.03 in 10.0 mi North 21.9 mph 27.6 mph N/A   Overcast
5:30 PM 32.0 °F 19.2 °F 21.2 °F 64% 30.04 in 10.0 mi North 23.0 mph 31.1 mph N/A   Mostly Cloudy
5:50 PM 32.0 °F 19.5 °F 19.4 °F 60% 30.06 in 10.0 mi North 21.9 mph 32.2 mph N/A   Clear
6:10 PM 30.2 °F 18.5 °F 17.6 °F 60% 30.08 in 10.0 mi NNE 17.3 mph 23.0 mph N/A   Scattered Clouds
6:30 PM 30.2 °F 18.9 °F 17.6 °F 60% 30.09 in 10.0 mi NNE 16.1 mph 21.9 mph N/A   Overcast
6:50 PM 30.2 °F 17.4 °F 17.6 °F 60% 30.11 in 10.0 mi North 20.7 mph 25.3 mph N/A   Scattered Clouds
7:10 PM 28.4 °F 17.5 °F 15.8 °F 59% 30.12 in 10.0 mi NNE 13.8 mph 21.9 mph N/A   Clear
7:30 PM 28.4 °F 15.8 °F 15.8 °F 59% 30.13 in 10.0 mi North 18.4 mph 25.3 mph N/A   Mostly Cloudy
7:50 PM 26.6 °F 13.8 °F 15.8 °F 64% 30.13 in 10.0 mi NE 17.3 mph 23.0 mph N/A   Overcast
8:10 PM 24.8 °F 11.5 °F 14.0 °F 64% 30.15 in 10.0 mi NNE 17.3 mph 24.2 mph N/A   Overcast
8:30 PM 23.0 °F 9.2 °F 14.0 °F 68% 30.16 in 10.0 mi NNE 17.3 mph - N/A   Overcast
8:50 PM 23.0 °F 8.3 °F 14.0 °F 68% 30.17 in 10.0 mi NNE 19.6 mph 25.3 mph N/A   Overcast
9:10 PM 21.2 °F 6.0 °F 14.0 °F 74% 30.17 in 10.0 mi NNE 19.6 mph 23.0 mph N/A   Overcast
9:30 PM 21.2 °F 6.0 °F 12.2 °F 68% 30.18 in 10.0 mi NNE 19.6 mph 24.2 mph N/A   Overcast
9:50 PM 19.4 °F 5.5 °F 10.4 °F 68% 30.20 in 10.0 mi NNE 15.0 mph 21.9 mph N/A   Overcast
10:10 PM 19.4 °F 6.0 °F 10.4 °F 68% 30.21 in 10.0 mi NNE 13.8 mph 24.2 mph N/A   Overcast
10:30 PM 17.6 °F 3.2 °F 10.4 °F 73% 30.21 in 7.0 mi NNE 15.0 mph - N/A   Overcast
10:50 PM 19.4 °F 7.2 °F 8.6 °F 63% 30.22 in 10.0 mi NNE 11.5 mph - N/A   Overcast
11:10 PM 17.6 °F 2.7 °F 8.6 °F 68% 30.23 in 10.0 mi North 16.1 mph 19.6 mph N/A   Overcast
11:30 PM 17.6 °F 2.7 °F 8.6 °F 68% 30.24 in 10.0 mi NNE 16.1 mph 21.9 mph N/A   Overcast
11:50 PM 17.6 °F 3.2 °F 6.8 °F 63% 30.25 in 10.0 mi North 15.0 mph 20.7 mph N/A   Overcast